When you browse on this site, cookies collect data to enhance your experience and personalize the content and advertising you see.
Visit our Privacy Policy to learn more. By continuing to use the site, you agree to this use of cookies and data.
  • In Österreich
  • Länderverzeichnis
  • Für 7 Tage
  • Wassertemperatur
  • Satellitenkarten
  • Wetterkarte
  • News
  • Widgets
  • user-avatar
    Anmelden

    Stündliche Wetter Osipovo

    Heute, 18 Februar, Montag

    Zeit Temperatur Niederschläge Wind Luftdruck Luftfeuchtigkeit
    00:00 -5°C° 0 mm 6 m/S 743 mmHg 77%
    01:00 -5°C° 0 mm 6 m/S 744 mmHg 77%
    02:00 -5°C° 0 mm 6 m/S 745 mmHg 76%
    03:00 -6°C° 0 mm 6 m/S 746 mmHg 76%
    04:00 -6°C° 0 mm 6 m/S 747 mmHg 77%
    05:00 -8°C° 0 mm 6 m/S 747 mmHg 77%
    06:00 -8°C° 0 mm 6 m/S 748 mmHg 78%
    07:00 -8°C° 0 mm 5 m/S 749 mmHg 78%
    08:00 -8°C° 0 mm 5 m/S 750 mmHg 79%
    09:00 -8°C° 0 mm 5 m/S 751 mmHg 78%
    10:00 -8°C° 0 mm 5 m/S 751 mmHg 77%
    11:00 -8°C° 0 mm 5 m/S 752 mmHg 76%
    12:00 -8°C° 0 mm 5 m/S 753 mmHg 76%
    13:00 -8°C° 0 mm 4 m/S 753 mmHg 76%
    14:00 -8°C° 0 mm 4 m/S 753 mmHg 75%
    15:00 -8°C° 0 mm 3 m/S 754 mmHg 79%
    16:00 -9°C° 0 mm 3 m/S 754 mmHg 84%
    17:00 -8°C° 0 mm 2 m/S 754 mmHg 88%
    18:00 -9°C° 0 mm 2 m/S 755 mmHg 89%
    19:00 -8°C° 0 mm 1 m/S 755 mmHg 90%
    20:00 -9°C° 0 mm 1 m/S 755 mmHg 91%
    21:00 -9°C° 0 mm 1 m/S 755 mmHg 91%
    22:00 -9°C° 0 mm 1 m/S 755 mmHg 91%
    23:00 -10°C° 0 mm 1 m/S 755 mmHg 91%

    Morgen, 19 Februar, Dienstag

    Zeit Temperatur Niederschläge Wind Luftdruck Luftfeuchtigkeit
    00:00 -9°C° 0 mm 1 m/S 755 mmHg 90%
    01:00 -10°C° 0 mm 2 m/S 755 mmHg 90%
    02:00 -10°C° 0 mm 2 m/S 754 mmHg 89%
    03:00 -10°C° 0 mm 3 m/S 754 mmHg 86%
    04:00 -9°C° 0 mm 3 m/S 753 mmHg 83%
    05:00 -10°C° 0 mm 4 m/S 752 mmHg 80%
    06:00 -9°C° 0 mm 4 m/S 752 mmHg 79%
    07:00 -10°C° 0 mm 5 m/S 751 mmHg 79%
    08:00 -10°C° 0 mm 5 m/S 751 mmHg 78%
    09:00 -7°C° 0 mm 5 m/S 750 mmHg 76%
    10:00 -6°C° 0 mm 5 m/S 749 mmHg 74%
    11:00 -4°C° 0 mm 6 m/S 749 mmHg 72%
    12:00 -4°C° 0 mm 5 m/S 748 mmHg 73%
    13:00 -2°C° 0 mm 5 m/S 748 mmHg 75%
    14:00 -2°C° 0 mm 5 m/S 747 mmHg 76%
    15:00 -2°C° 0 mm 4 m/S 747 mmHg 78%
    16:00 -3°C° 0 mm 4 m/S 746 mmHg 80%
    17:00 -4°C° 0 mm 3 m/S 746 mmHg 82%
    18:00 -4°C° 0 mm 4 m/S 746 mmHg 82%
    19:00 -4°C° 0 mm 4 m/S 745 mmHg 82%
    20:00 -4°C° 0 mm 4 m/S 745 mmHg 82%
    21:00 -4°C° 0 mm 4 m/S 744 mmHg 84%
    22:00 -4°C° 0 mm 4 m/S 743 mmHg 86%
    23:00 -5°C° 0 mm 5 m/S 743 mmHg 87%

    übermorgen, 20 Februar, Mittwoch

    Zeit Temperatur Niederschläge Wind Luftdruck Luftfeuchtigkeit
    00:00 -5°C° 0 mm 5 m/S 742 mmHg 88%
    01:00 -4°C° 0 mm 5 m/S 742 mmHg 88%
    02:00 -4°C° 0 mm 5 m/S 741 mmHg 88%
    03:00 -2°C° 0 mm 5 m/S 740 mmHg 88%
    04:00 -2°C° 0 mm 5 m/S 739 mmHg 88%
    05:00 -2°C° 0 mm 5 m/S 739 mmHg 87%
    06:00 -2°C° 0.1 mm 6 m/S 738 mmHg 88%
    07:00 -2°C° 0.1 mm 6 m/S 738 mmHg 88%
    08:00 -1°C° 0.1 mm 6 m/S 738 mmHg 89%
    09:00 0°C° 0.1 mm 5 m/S 738 mmHg 89%
    10:00 0°C° 0.1 mm 5 m/S 738 mmHg 90%
    11:00 0°C° 0.1 mm 5 m/S 738 mmHg 90%
    12:00 0°C° 0 mm 5 m/S 738 mmHg 90%
    13:00 0°C° 0 mm 5 m/S 737 mmHg 90%
    14:00 +1°C° 0 mm 5 m/S 737 mmHg 89%
    15:00 0°C° 0 mm 5 m/S 737 mmHg 89%
    16:00 0°C° 0 mm 4 m/S 737 mmHg 88%
    17:00 -1°C° 0 mm 4 m/S 737 mmHg 87%
    18:00 -1°C° 0.1 mm 4 m/S 736 mmHg 88%
    19:00 -1°C° 0.1 mm 4 m/S 736 mmHg 88%
    20:00 0°C° 0.1 mm 4 m/S 736 mmHg 89%
    21:00 -1°C° 0.4 mm 4 m/S 735 mmHg 89%
    22:00 -1°C° 0.4 mm 4 m/S 735 mmHg 88%
    23:00 -1°C° 0.4 mm 4 m/S 735 mmHg 88%

    21 Februar, Donnerstag

    Zeit Temperatur Niederschläge Wind Luftdruck Luftfeuchtigkeit
    00:00 -2°C° 0.1 mm 4 m/S 735 mmHg 86%
    01:00 -3°C° 0.1 mm 4 m/S 735 mmHg 84%
    02:00 -4°C° 0.1 mm 4 m/S 735 mmHg 82%
    03:00 -5°C° 0 mm 3 m/S 735 mmHg 85%
    04:00 -6°C° 0 mm 3 m/S 735 mmHg 88%
    05:00 -7°C° 0 mm 3 m/S 735 mmHg 90%
    06:00 -5°C° 0.1 mm 2 m/S 735 mmHg 91%
    07:00 -4°C° 0.1 mm 2 m/S 735 mmHg 92%
    08:00 -4°C° 0.1 mm 2 m/S 735 mmHg 93%
    09:00 -4°C° 0.3 mm 3 m/S 736 mmHg 91%
    10:00 -4°C° 0.3 mm 4 m/S 736 mmHg 88%
    11:00 -5°C° 0.3 mm 5 m/S 736 mmHg 86%
    12:00 -5°C° 0.2 mm 5 m/S 737 mmHg 86%
    13:00 -5°C° 0.2 mm 5 m/S 737 mmHg 85%
    14:00 -5°C° 0.2 mm 5 m/S 738 mmHg 84%
    15:00 -6°C° 0.1 mm 6 m/S 739 mmHg 84%
    16:00 -8°C° 0.1 mm 6 m/S 740 mmHg 83%
    17:00 -8°C° 0.1 mm 6 m/S 741 mmHg 83%
    18:00 -9°C° 0.1 mm 6 m/S 742 mmHg 82%
    19:00 -10°C° 0.1 mm 6 m/S 743 mmHg 81%
    20:00 -10°C° 0.1 mm 6 m/S 744 mmHg 80%
    21:00 -11°C° 0.1 mm 6 m/S 745 mmHg 79%
    22:00 -11°C° 0.1 mm 6 m/S 746 mmHg 78%
    23:00 -12°C° 0.1 mm 6 m/S 747 mmHg 78%

    22 Februar, Freitag

    Zeit Temperatur Niederschläge Wind Luftdruck Luftfeuchtigkeit
    00:00 -12°C° 0 mm 6 m/S 748 mmHg 77%
    01:00 -14°C° 0 mm 6 m/S 749 mmHg 76%
    02:00 -14°C° 0 mm 6 m/S 749 mmHg 75%
    03:00 -15°C° 0 mm 6 m/S 750 mmHg 75%
    04:00 -16°C° 0 mm 6 m/S 751 mmHg 74%
    05:00 -16°C° 0 mm 6 m/S 751 mmHg 74%
    06:00 -16°C° 0 mm 6 m/S 752 mmHg 72%
    07:00 -17°C° 0 mm 7 m/S 753 mmHg 71%
    08:00 -17°C° 0 mm 7 m/S 754 mmHg 69%
    09:00 -15°C° 0 mm 7 m/S 754 mmHg 68%
    10:00 -14°C° 0 mm 7 m/S 755 mmHg 68%
    11:00 -15°C° 0 mm 8 m/S 755 mmHg 67%
    12:00 -13°C° 0 mm 7 m/S 756 mmHg 68%
    13:00 -13°C° 0 mm 7 m/S 756 mmHg 68%
    14:00 -13°C° 0 mm 7 m/S 756 mmHg 69%
    15:00 -13°C° 0 mm 7 m/S 757 mmHg 70%
    16:00 -13°C° 0 mm 7 m/S 758 mmHg 71%
    17:00 -12°C° 0 mm 6 m/S 758 mmHg 72%
    18:00 -12°C° 0 mm 6 m/S 759 mmHg 74%
    19:00 -14°C° 0 mm 6 m/S 760 mmHg 76%
    20:00 -13°C° 0 mm 5 m/S 761 mmHg 78%
    21:00 -13°C° 0 mm 5 m/S 761 mmHg 80%
    22:00 -13°C° 0 mm 5 m/S 762 mmHg 82%
    23:00 -12°C° 0 mm 4 m/S 762 mmHg 84%

    23 Februar, Samstag

    Zeit Temperatur Niederschläge Wind Luftdruck Luftfeuchtigkeit
    00:00 -14°C° 0 mm 4 m/S 762 mmHg 85%
    01:00 -13°C° 0 mm 3 m/S 763 mmHg 86%
    02:00 -14°C° 0 mm 3 m/S 763 mmHg 87%
    03:00 -13°C° 0 mm 2 m/S 763 mmHg 88%
    04:00 -14°C° 0 mm 2 m/S 763 mmHg 89%
    05:00 -14°C° 0 mm 2 m/S 763 mmHg 90%
    06:00 -13°C° 0 mm 2 m/S 763 mmHg 87%
    07:00 -13°C° 0 mm 2 m/S 762 mmHg 83%
    08:00 -12°C° 0 mm 2 m/S 762 mmHg 80%
    09:00 -12°C° 0 mm 3 m/S 762 mmHg 76%
    10:00 -9°C° 0 mm 3 m/S 761 mmHg 72%
    11:00 -9°C° 0 mm 4 m/S 761 mmHg 69%
    12:00 -8°C° 0.1 mm 4 m/S 760 mmHg 74%
    13:00 -8°C° 0.1 mm 4 m/S 760 mmHg 79%
    14:00 -8°C° 0.1 mm 5 m/S 759 mmHg 85%
    15:00 -8°C° 0.2 mm 4 m/S 759 mmHg 86%
    16:00 -8°C° 0.2 mm 4 m/S 758 mmHg 88%
    17:00 -8°C° 0.2 mm 4 m/S 758 mmHg 89%
    18:00 -7°C° 0.1 mm 3 m/S 758 mmHg 90%
    19:00 -7°C° 0.1 mm 3 m/S 758 mmHg 90%
    20:00 -7°C° 0.1 mm 3 m/S 757 mmHg 91%
    21:00 -7°C° 0 mm 3 m/S 757 mmHg 91%
    22:00 -7°C° 0 mm 3 m/S 757 mmHg 92%
    23:00 -7°C° 0 mm 3 m/S 757 mmHg 93%
    Mehr zeigen